Year,Month,Day,Hour,Minute,Value (Times are PST for insolation in W/m^2)
2008,08,02,00,00,0.00
2008,08,02,00,01,0.00
2008,08,02,00,02,0.00
2008,08,02,00,03,0.00
2008,08,02,00,04,0.00
2008,08,02,00,05,0.00
2008,08,02,00,06,0.00
2008,08,02,00,07,0.00
2008,08,02,00,08,0.00
2008,08,02,00,09,0.00
2008,08,02,00,10,0.00
2008,08,02,00,11,0.00
2008,08,02,00,12,0.00
2008,08,02,00,13,0.00
2008,08,02,00,14,0.00
2008,08,02,00,15,0.00
2008,08,02,00,16,0.00
2008,08,02,00,17,0.00
2008,08,02,00,18,0.00
2008,08,02,00,19,0.00
2008,08,02,00,20,0.00
2008,08,02,00,21,0.00
2008,08,02,00,22,0.00
2008,08,02,00,23,0.00
2008,08,02,00,24,0.00
2008,08,02,00,25,0.00
2008,08,02,00,26,0.00
2008,08,02,00,27,0.00
2008,08,02,00,28,0.00
2008,08,02,00,29,0.00
2008,08,02,00,30,0.00
2008,08,02,00,31,0.00
2008,08,02,00,32,0.00
2008,08,02,00,33,0.00
2008,08,02,00,34,0.00
2008,08,02,00,35,0.00
2008,08,02,00,36,0.00
2008,08,02,00,37,0.00
2008,08,02,00,38,0.00
2008,08,02,00,39,0.00
2008,08,02,00,40,0.00
2008,08,02,00,41,0.00
2008,08,02,00,42,0.00
2008,08,02,00,43,0.00
2008,08,02,00,44,0.00
2008,08,02,00,45,0.00
2008,08,02,00,46,0.00
2008,08,02,00,47,0.00
2008,08,02,00,48,0.00
2008,08,02,00,49,0.00
2008,08,02,00,50,0.00
2008,08,02,00,51,0.00
2008,08,02,00,52,0.00
2008,08,02,00,53,0.00
2008,08,02,00,54,0.00
2008,08,02,00,55,0.00
2008,08,02,00,56,0.00
2008,08,02,00,57,0.00
2008,08,02,00,58,0.00
2008,08,02,00,59,0.00
2008,08,02,01,00,0.00
2008,08,02,01,01,0.00
2008,08,02,01,02,0.00
2008,08,02,01,03,0.00
2008,08,02,01,04,0.00
2008,08,02,01,05,0.00
2008,08,02,01,06,0.00
2008,08,02,01,07,0.00
2008,08,02,01,08,0.00
2008,08,02,01,09,0.00
2008,08,02,01,10,0.00
2008,08,02,01,11,0.00
2008,08,02,01,12,0.00
2008,08,02,01,13,0.00
2008,08,02,01,14,0.00
2008,08,02,01,15,0.00
2008,08,02,01,16,0.00
2008,08,02,01,17,0.00
2008,08,02,01,18,0.00
2008,08,02,01,19,0.00
2008,08,02,01,20,0.00
2008,08,02,01,21,0.00
2008,08,02,01,22,0.00
2008,08,02,01,23,0.00
2008,08,02,01,24,0.00
2008,08,02,01,25,0.00
2008,08,02,01,26,0.00
2008,08,02,01,27,0.00
2008,08,02,01,28,0.00
2008,08,02,01,29,0.00
2008,08,02,01,30,0.00
2008,08,02,01,31,0.00
2008,08,02,01,32,0.00
2008,08,02,01,33,0.00
2008,08,02,01,34,0.00
2008,08,02,01,35,0.00
2008,08,02,01,36,0.00
2008,08,02,01,37,0.00
2008,08,02,01,38,0.00
2008,08,02,01,39,0.00
2008,08,02,01,40,0.00
2008,08,02,01,41,0.00
2008,08,02,01,42,0.00
2008,08,02,01,43,0.00
2008,08,02,01,44,0.00
2008,08,02,01,45,0.00
2008,08,02,01,46,0.00
2008,08,02,01,47,0.00
2008,08,02,01,48,0.00
2008,08,02,01,49,0.00
2008,08,02,01,50,0.00
2008,08,02,01,51,0.00
2008,08,02,01,52,0.00
2008,08,02,01,53,0.00
2008,08,02,01,54,0.00
2008,08,02,01,55,0.00
2008,08,02,01,56,0.00
2008,08,02,01,57,0.00
2008,08,02,01,58,0.00
2008,08,02,01,59,0.00
2008,08,02,02,00,0.00
2008,08,02,02,01,0.00
2008,08,02,02,02,0.00
2008,08,02,02,03,0.00
2008,08,02,02,04,0.00
2008,08,02,02,05,0.00
2008,08,02,02,06,0.00
2008,08,02,02,07,0.00
2008,08,02,02,08,0.00
2008,08,02,02,09,0.00
2008,08,02,02,10,0.00
2008,08,02,02,11,0.00
2008,08,02,02,12,0.00
2008,08,02,02,13,0.00
2008,08,02,02,14,0.00
2008,08,02,02,15,0.00
2008,08,02,02,16,0.00
2008,08,02,02,17,0.00
2008,08,02,02,18,0.00
2008,08,02,02,19,0.00
2008,08,02,02,20,0.00
2008,08,02,02,21,0.00
2008,08,02,02,22,0.00
2008,08,02,02,23,0.00
2008,08,02,02,24,0.00
2008,08,02,02,25,0.00
2008,08,02,02,26,0.00
2008,08,02,02,27,0.00
2008,08,02,02,28,0.00
2008,08,02,02,29,0.00
2008,08,02,02,30,0.00
2008,08,02,02,31,0.00
2008,08,02,02,32,0.00
2008,08,02,02,33,0.00
2008,08,02,02,34,0.00
2008,08,02,02,35,0.00
2008,08,02,02,36,0.00
2008,08,02,02,37,0.00
2008,08,02,02,38,0.00
2008,08,02,02,39,0.00
2008,08,02,02,40,0.00
2008,08,02,02,41,0.00
2008,08,02,02,42,0.00
2008,08,02,02,43,0.00
2008,08,02,02,44,0.00
2008,08,02,02,45,0.00
2008,08,02,02,46,0.00
2008,08,02,02,47,0.00
2008,08,02,02,48,0.00
2008,08,02,02,49,0.00
2008,08,02,02,50,0.00
2008,08,02,02,51,0.00
2008,08,02,02,52,0.00
2008,08,02,02,53,0.00
2008,08,02,02,54,0.00
2008,08,02,02,55,0.00
2008,08,02,02,56,0.00
2008,08,02,02,57,0.00
2008,08,02,02,58,0.00
2008,08,02,02,59,0.00
2008,08,02,03,00,0.00
2008,08,02,03,01,0.00
2008,08,02,03,02,0.00
2008,08,02,03,03,0.00
2008,08,02,03,04,0.00
2008,08,02,03,05,0.00
2008,08,02,03,06,0.00
2008,08,02,03,07,0.00
2008,08,02,03,08,0.00
2008,08,02,03,09,0.00
2008,08,02,03,10,0.00
2008,08,02,03,11,0.00
2008,08,02,03,12,0.00
2008,08,02,03,13,0.00
2008,08,02,03,14,0.00
2008,08,02,03,15,0.00
2008,08,02,03,16,0.00
2008,08,02,03,17,0.00
2008,08,02,03,18,0.00
2008,08,02,03,19,0.00
2008,08,02,03,20,0.00
2008,08,02,03,21,0.00
2008,08,02,03,22,0.00
2008,08,02,03,23,0.00
2008,08,02,03,24,0.00
2008,08,02,03,25,0.00
2008,08,02,03,26,0.00
2008,08,02,03,27,0.00
2008,08,02,03,28,0.00
2008,08,02,03,29,0.00
2008,08,02,03,30,0.00
2008,08,02,03,31,0.00
2008,08,02,03,32,0.00
2008,08,02,03,33,0.00
2008,08,02,03,34,0.00
2008,08,02,03,35,0.00
2008,08,02,03,36,0.00
2008,08,02,03,37,0.00
2008,08,02,03,38,0.00
2008,08,02,03,39,0.00
2008,08,02,03,40,0.00
2008,08,02,03,41,0.00
2008,08,02,03,42,0.00
2008,08,02,03,43,0.00
2008,08,02,03,44,0.00
2008,08,02,03,45,0.00
2008,08,02,03,46,0.00
2008,08,02,03,47,0.00
2008,08,02,03,48,0.00
2008,08,02,03,49,0.00
2008,08,02,03,50,0.00
2008,08,02,03,51,0.00
2008,08,02,03,52,0.00
2008,08,02,03,53,0.00
2008,08,02,03,54,0.00
2008,08,02,03,55,0.00
2008,08,02,03,56,0.00
2008,08,02,03,57,0.00
2008,08,02,03,58,0.00
2008,08,02,03,59,0.00
2008,08,02,04,00,0.00
2008,08,02,04,01,0.00
2008,08,02,04,02,0.00
2008,08,02,04,03,0.00
2008,08,02,04,04,0.00
2008,08,02,04,05,0.00
2008,08,02,04,06,0.00
2008,08,02,04,07,0.00
2008,08,02,04,08,0.00
2008,08,02,04,09,0.00
2008,08,02,04,10,0.00
2008,08,02,04,11,0.00
2008,08,02,04,12,0.00
2008,08,02,04,13,0.00
2008,08,02,04,14,0.00
2008,08,02,04,15,0.00
2008,08,02,04,16,0.00
2008,08,02,04,17,0.00
2008,08,02,04,18,0.00
2008,08,02,04,19,0.00
2008,08,02,04,20,0.00
2008,08,02,04,21,0.00
2008,08,02,04,22,0.00
2008,08,02,04,23,0.00
2008,08,02,04,24,0.00
2008,08,02,04,25,0.00
2008,08,02,04,26,0.00
2008,08,02,04,27,0.00
2008,08,02,04,28,0.00
2008,08,02,04,29,0.00
2008,08,02,04,30,0.00
2008,08,02,04,31,0.00
2008,08,02,04,32,0.00
2008,08,02,04,33,0.00
2008,08,02,04,34,0.00
2008,08,02,04,35,0.00
2008,08,02,04,36,0.00
2008,08,02,04,37,0.00
2008,08,02,04,38,0.00
2008,08,02,04,39,0.00
2008,08,02,04,40,0.00
2008,08,02,04,41,0.00
2008,08,02,04,42,0.00
2008,08,02,04,43,0.00
2008,08,02,04,44,0.00
2008,08,02,04,45,0.00
2008,08,02,04,46,0.00
2008,08,02,04,47,0.00
2008,08,02,04,48,0.00
2008,08,02,04,49,0.00
2008,08,02,04,50,0.00
2008,08,02,04,51,0.00
2008,08,02,04,52,0.00
2008,08,02,04,53,0.00
2008,08,02,04,54,0.00
2008,08,02,04,55,0.00
2008,08,02,04,56,0.00
2008,08,02,04,57,0.00
2008,08,02,04,58,0.00
2008,08,02,04,59,0.00
2008,08,02,05,00,0.00
2008,08,02,05,01,0.00
2008,08,02,05,02,0.00
2008,08,02,05,03,0.00
2008,08,02,05,04,0.00
2008,08,02,05,05,0.00
2008,08,02,05,06,0.00
2008,08,02,05,07,0.00
2008,08,02,05,08,0.00
2008,08,02,05,09,0.00
2008,08,02,05,10,0.00
2008,08,02,05,11,0.00
2008,08,02,05,12,0.00
2008,08,02,05,13,0.00
2008,08,02,05,14,0.00
2008,08,02,05,15,0.00
2008,08,02,05,16,0.00
2008,08,02,05,17,0.00
2008,08,02,05,18,0.00
2008,08,02,05,19,0.00
2008,08,02,05,20,0.00
2008,08,02,05,21,0.00
2008,08,02,05,22,0.00
2008,08,02,05,23,0.00
2008,08,02,05,24,0.00
2008,08,02,05,25,0.00
2008,08,02,05,26,0.00
2008,08,02,05,27,0.00
2008,08,02,05,28,0.00
2008,08,02,05,29,0.00
2008,08,02,05,30,0.00
2008,08,02,05,31,0.00
2008,08,02,05,32,0.00
2008,08,02,05,33,0.00
2008,08,02,05,34,0.00
2008,08,02,05,35,0.00
2008,08,02,05,36,0.00
2008,08,02,05,37,0.00
2008,08,02,05,38,0.00
2008,08,02,05,39,0.00
2008,08,02,05,40,0.00
2008,08,02,05,41,0.00
2008,08,02,05,42,0.00
2008,08,02,05,43,0.00
2008,08,02,05,44,0.00
2008,08,02,05,45,0.00
2008,08,02,05,46,0.00
2008,08,02,05,47,0.00
2008,08,02,05,48,0.00
2008,08,02,05,49,0.00
2008,08,02,05,50,0.00
2008,08,02,05,51,0.00
2008,08,02,05,52,0.00
2008,08,02,05,53,0.00
2008,08,02,05,54,0.00
2008,08,02,05,55,0.00
2008,08,02,05,56,0.00
2008,08,02,05,57,0.00
2008,08,02,05,58,0.00
2008,08,02,05,59,0.00
2008,08,02,06,00,0.00
2008,08,02,06,01,3.10
2008,08,02,06,02,5.00
2008,08,02,06,03,5.00
2008,08,02,06,04,6.90
2008,08,02,06,05,7.60
2008,08,02,06,06,9.80
2008,08,02,06,07,11.60
2008,08,02,06,08,12.00
2008,08,02,06,09,13.70
2008,08,02,06,10,14.00
2008,08,02,06,11,14.70
2008,08,02,06,12,16.00
2008,08,02,06,13,17.20
2008,08,02,06,14,18.80
2008,08,02,06,15,19.00
2008,08,02,06,16,21.40
2008,08,02,06,17,23.00
2008,08,02,06,18,23.90
2008,08,02,06,19,25.00
2008,08,02,06,20,25.00
2008,08,02,06,21,26.00
2008,08,02,06,22,26.40
2008,08,02,06,23,28.70
2008,08,02,06,24,31.10
2008,08,02,06,25,32.00
2008,08,02,06,26,32.80
2008,08,02,06,27,33.10
2008,08,02,06,28,35.00
2008,08,02,06,29,35.80
2008,08,02,06,30,38.00
2008,08,02,06,31,39.70
2008,08,02,06,32,40.00
2008,08,02,06,33,42.10
2008,08,02,06,34,44.00
2008,08,02,06,35,44.80
2008,08,02,06,36,46.60
2008,08,02,06,37,48.50
2008,08,02,06,38,49.00
2008,08,02,06,39,51.20
2008,08,02,06,40,53.20
2008,08,02,06,41,54.00
2008,08,02,06,42,54.00
2008,08,02,06,43,55.50
2008,08,02,06,44,57.70
2008,08,02,06,45,58.70
2008,08,02,06,46,62.90
2008,08,02,06,47,65.90
2008,08,02,06,48,72.80
2008,08,02,06,49,76.70
2008,08,02,06,50,72.00
2008,08,02,06,51,64.70
2008,08,02,06,52,63.00
2008,08,02,06,53,63.00
2008,08,02,06,54,62.40
2008,08,02,06,55,62.80
2008,08,02,06,56,72.00
2008,08,02,06,57,71.30
2008,08,02,06,58,68.30
2008,08,02,06,59,67.00
2008,08,02,07,00,67.00
2008,08,02,07,01,67.00
2008,08,02,07,02,67.00
2008,08,02,07,03,67.00
2008,08,02,07,04,66.20
2008,08,02,07,05,65.00
2008,08,02,07,06,65.00
2008,08,02,07,07,65.00
2008,08,02,07,08,65.00
2008,08,02,07,09,65.00
2008,08,02,07,10,65.00
2008,08,02,07,11,66.20
2008,08,02,07,12,68.40
2008,08,02,07,13,69.80
2008,08,02,07,14,72.00
2008,08,02,07,15,72.50
2008,08,02,07,16,73.20
2008,08,02,07,17,72.00
2008,08,02,07,18,72.00
2008,08,02,07,19,72.00
2008,08,02,07,20,72.20
2008,08,02,07,21,74.50
2008,08,02,07,22,76.00
2008,08,02,07,23,76.60
2008,08,02,07,24,77.00
2008,08,02,07,25,78.60
2008,08,02,07,26,81.00
2008,08,02,07,27,81.60
2008,08,02,07,28,83.40
2008,08,02,07,29,85.30
2008,08,02,07,30,87.60
2008,08,02,07,31,89.90
2008,08,02,07,32,90.00
2008,08,02,07,33,90.00
2008,08,02,07,34,88.90
2008,08,02,07,35,88.00
2008,08,02,07,36,88.00
2008,08,02,07,37,89.80
2008,08,02,07,38,93.70
2008,08,02,07,39,98.80
2008,08,02,07,40,104.60
2008,08,02,07,41,109.40
2008,08,02,07,42,113.50
2008,08,02,07,43,118.10
2008,08,02,07,44,120.00
2008,08,02,07,45,120.30
2008,08,02,07,46,122.10
2008,08,02,07,47,125.80
2008,08,02,07,48,127.80
2008,08,02,07,49,132.10
2008,08,02,07,50,134.60
2008,08,02,07,51,138.60
2008,08,02,07,52,141.60
2008,08,02,07,53,142.00
2008,08,02,07,54,143.80
2008,08,02,07,55,146.40
2008,08,02,07,56,150.40
2008,08,02,07,57,149.00
2008,08,02,07,58,156.00
2008,08,02,07,59,144.60
2008,08,02,08,00,135.20
2008,08,02,08,01,129.60
2008,08,02,08,02,125.80
2008,08,02,08,03,122.20
2008,08,02,08,04,120.50
2008,08,02,08,05,118.50
2008,08,02,08,06,116.10
2008,08,02,08,07,112.30
2008,08,02,08,08,106.00
2008,08,02,08,09,101.20
2008,08,02,08,10,96.30
2008,08,02,08,11,93.60
2008,08,02,08,12,91.10
2008,08,02,08,13,87.60
2008,08,02,08,14,85.10
2008,08,02,08,15,81.10
2008,08,02,08,16,77.10
2008,08,02,08,17,73.00
2008,08,02,08,18,69.00
2008,08,02,08,19,67.00
2008,08,02,08,20,66.30
2008,08,02,08,21,64.10
2008,08,02,08,22,62.40
2008,08,02,08,23,62.00
2008,08,02,08,24,60.00
2008,08,02,08,25,59.70
2008,08,02,08,26,58.00
2008,08,02,08,27,56.90
2008,08,02,08,28,56.00
2008,08,02,08,29,56.00
2008,08,02,08,30,56.00
2008,08,02,08,31,56.40
2008,08,02,08,32,58.80
2008,08,02,08,33,61.70
2008,08,02,08,34,63.00
2008,08,02,08,35,64.50
2008,08,02,08,36,67.20
2008,08,02,08,37,69.20
2008,08,02,08,38,70.00
2008,08,02,08,39,71.10
2008,08,02,08,40,73.50
2008,08,02,08,41,74.00
2008,08,02,08,42,77.70
2008,08,02,08,43,81.60
2008,08,02,08,44,83.00
2008,08,02,08,45,87.50
2008,08,02,08,46,92.10
2008,08,02,08,47,96.80
2008,08,02,08,48,102.20
2008,08,02,08,49,106.80
2008,08,02,08,50,112.40
2008,08,02,08,51,116.20
2008,08,02,08,52,120.50
2008,08,02,08,53,125.00
2008,08,02,08,54,130.40
2008,08,02,08,55,135.10
2008,08,02,08,56,138.00
2008,08,02,08,57,142.50
2008,08,02,08,58,147.30
2008,08,02,08,59,151.00
2008,08,02,09,00,153.40
2008,08,02,09,01,156.70
2008,08,02,09,02,159.70
2008,08,02,09,03,162.70
2008,08,02,09,04,166.30
2008,08,02,09,05,171.00
2008,08,02,09,06,172.60
2008,08,02,09,07,177.80
2008,08,02,09,08,183.60
2008,08,02,09,09,190.20
2008,08,02,09,10,199.20
2008,08,02,09,11,209.50
2008,08,02,09,12,219.60
2008,08,02,09,13,227.40
2008,08,02,09,14,234.90
2008,08,02,09,15,241.90
2008,08,02,09,16,251.20
2008,08,02,09,17,264.40
2008,08,02,09,18,272.40
2008,08,02,09,19,278.10
2008,08,02,09,20,282.20
2008,08,02,09,21,283.00
2008,08,02,09,22,279.80
2008,08,02,09,23,272.80
2008,08,02,09,24,265.50
2008,08,02,09,25,260.00
2008,08,02,09,26,253.50
2008,08,02,09,27,245.60
2008,08,02,09,28,237.40
2008,08,02,09,29,233.70
2008,08,02,09,30,232.00
2008,08,02,09,31,233.60
2008,08,02,09,32,237.90
2008,08,02,09,33,242.30
2008,08,02,09,34,246.00
2008,08,02,09,35,252.10
2008,08,02,09,36,258.50
2008,08,02,09,37,264.40
2008,08,02,09,38,267.00
2008,08,02,09,39,264.50
2008,08,02,09,40,257.00
2008,08,02,09,41,250.80
2008,08,02,09,42,250.00
2008,08,02,09,43,250.40
2008,08,02,09,44,251.00
2008,08,02,09,45,250.20
2008,08,02,09,46,248.30
2008,08,02,09,47,254.60
2008,08,02,09,48,264.90
2008,08,02,09,49,283.50
2008,08,02,09,50,305.40
2008,08,02,09,51,327.80
2008,08,02,09,52,345.10
2008,08,02,09,53,347.60
2008,08,02,09,54,354.40
2008,08,02,09,55,368.50
2008,08,02,09,56,396.90
2008,08,02,09,57,393.40
2008,08,02,09,58,421.00
2008,08,02,09,59,399.60
2008,08,02,10,00,361.10
2008,08,02,10,01,356.20
2008,08,02,10,02,370.60
2008,08,02,10,03,376.40
2008,08,02,10,04,373.00
2008,08,02,10,05,394.20
2008,08,02,10,06,372.20
2008,08,02,10,07,376.80
2008,08,02,10,08,387.60
2008,08,02,10,09,398.90
2008,08,02,10,10,463.00
2008,08,02,10,11,483.00
2008,08,02,10,12,621.00
2008,08,02,10,13,866.80
2008,08,02,10,14,871.70
2008,08,02,10,15,867.00
2008,08,02,10,16,804.70
2008,08,02,10,17,745.00
2008,08,02,10,18,800.50
2008,08,02,10,19,833.60
2008,08,02,10,20,750.60
2008,08,02,10,21,837.00
2008,08,02,10,22,835.40
2008,08,02,10,23,828.00
2008,08,02,10,24,772.90
2008,08,02,10,25,767.40
2008,08,02,10,26,809.20
2008,08,02,10,27,810.30
2008,08,02,10,28,799.40
2008,08,02,10,29,777.40
2008,08,02,10,30,756.00
2008,08,02,10,31,756.00
2008,08,02,10,32,414.50
2008,08,02,10,33,408.10
2008,08,02,10,34,378.00
2008,08,02,10,35,474.80
2008,08,02,10,36,613.00
2008,08,02,10,37,694.10
2008,08,02,10,38,714.60
2008,08,02,10,39,712.90
2008,08,02,10,40,707.80
2008,08,02,10,41,717.80
2008,08,02,10,42,717.90
2008,08,02,10,43,717.00
2008,08,02,10,44,721.40
2008,08,02,10,45,733.80
2008,08,02,10,46,741.50
2008,08,02,10,47,745.00
2008,08,02,10,48,740.10
2008,08,02,10,49,743.10
2008,08,02,10,50,761.90
2008,08,02,10,51,784.80
2008,08,02,10,52,777.20
2008,08,02,10,53,798.40
2008,08,02,10,54,833.30
2008,08,02,10,55,823.00
2008,08,02,10,56,665.30
2008,08,02,10,57,656.00
2008,08,02,10,58,610.40
2008,08,02,10,59,523.30
2008,08,02,11,00,545.00
2008,08,02,11,01,618.50
2008,08,02,11,02,554.80
2008,08,02,11,03,519.00
2008,08,02,11,04,623.80
2008,08,02,11,05,830.80
2008,08,02,11,06,849.00
2008,08,02,11,07,849.00
2008,08,02,11,08,880.90
2008,08,02,11,09,850.30
2008,08,02,11,10,809.00
2008,08,02,11,11,862.50
2008,08,02,11,12,918.10
2008,08,02,11,13,922.50
2008,08,02,11,14,924.80
2008,08,02,11,15,925.00
2008,08,02,11,16,782.20
2008,08,02,11,17,477.60
2008,08,02,11,18,450.00
2008,08,02,11,19,450.00
2008,08,02,11,20,462.10
2008,08,02,11,21,656.00
2008,08,02,11,22,735.80
2008,08,02,11,23,892.60
2008,08,02,11,24,896.40
2008,08,02,11,25,880.00
2008,08,02,11,26,862.80
2008,08,02,11,27,862.70
2008,08,02,11,28,870.60
2008,08,02,11,29,870.30
2008,08,02,11,30,867.00
2008,08,02,11,31,368.30
2008,08,02,11,32,218.00
2008,08,02,11,33,218.00
2008,08,02,11,34,518.20
2008,08,02,11,35,845.30
2008,08,02,11,36,840.00
2008,08,02,11,37,845.60
2008,08,02,11,38,850.00
2008,08,02,11,39,846.30
2008,08,02,11,40,848.10
2008,08,02,11,41,852.20
2008,08,02,11,42,849.80
2008,08,02,11,43,902.00
2008,08,02,11,44,881.00
2008,08,02,11,45,878.40
2008,08,02,11,46,881.50
2008,08,02,11,47,885.60
2008,08,02,11,48,892.40
2008,08,02,11,49,894.40
2008,08,02,11,50,884.00
2008,08,02,11,51,880.10
2008,08,02,11,52,839.60
2008,08,02,11,53,845.60
2008,08,02,11,54,870.00
2008,08,02,11,55,813.80
2008,08,02,11,56,837.40
2008,08,02,11,57,854.40
2008,08,02,11,58,856.10
2008,08,02,11,59,864.40
2008,08,02,12,00,870.00
2008,08,02,12,01,864.40
2008,08,02,12,02,851.20
2008,08,02,12,03,836.60
2008,08,02,12,04,844.00
2008,08,02,12,05,836.60
2008,08,02,12,06,828.40
2008,08,02,12,07,787.30
2008,08,02,12,08,707.00
2008,08,02,12,09,749.80
2008,08,02,12,10,809.50
2008,08,02,12,11,819.00
2008,08,02,12,12,823.70
2008,08,02,12,13,824.50
2008,08,02,12,14,828.50
2008,08,02,12,15,830.00
2008,08,02,12,16,830.00
2008,08,02,12,17,830.00
2008,08,02,12,18,830.00
2008,08,02,12,19,828.00
2008,08,02,12,20,828.90
2008,08,02,12,21,830.60
2008,08,02,12,22,830.00
2008,08,02,12,23,830.00
2008,08,02,12,24,830.00
2008,08,02,12,25,830.20
2008,08,02,12,26,831.60
2008,08,02,12,27,831.90
2008,08,02,12,28,831.00
2008,08,02,12,29,832.60
2008,08,02,12,30,834.70
2008,08,02,12,31,833.40
2008,08,02,12,32,834.40
2008,08,02,12,33,834.80
2008,08,02,12,34,837.70
2008,08,02,12,35,841.00
2008,08,02,12,36,841.90
2008,08,02,12,37,840.00
2008,08,02,12,38,840.80
2008,08,02,12,39,843.20
2008,08,02,12,40,846.00
2008,08,02,12,41,848.80
2008,08,02,12,42,849.00
2008,08,02,12,43,848.40
2008,08,02,12,44,847.00
2008,08,02,12,45,847.00
2008,08,02,12,46,847.00
2008,08,02,12,47,847.00
2008,08,02,12,48,847.20
2008,08,02,12,49,848.40
2008,08,02,12,50,847.00
2008,08,02,12,51,848.10
2008,08,02,12,52,847.50
2008,08,02,12,53,844.60
2008,08,02,12,54,846.00
2008,08,02,12,55,846.30
2008,08,02,12,56,846.60
2008,08,02,12,57,846.00
2008,08,02,12,58,846.70
2008,08,02,12,59,850.40
2008,08,02,13,00,851.00
2008,08,02,13,01,851.00
2008,08,02,13,02,849.90
2008,08,02,13,03,851.60
2008,08,02,13,04,851.60
2008,08,02,13,05,851.00
2008,08,02,13,06,839.40
2008,08,02,13,07,850.90
2008,08,02,13,08,847.00
2008,08,02,13,09,845.20
2008,08,02,13,10,845.50
2008,08,02,13,11,846.00
2008,08,02,13,12,846.00
2008,08,02,13,13,847.10
2008,08,02,13,14,849.00
2008,08,02,13,15,842.50
2008,08,02,13,16,843.50
2008,08,02,13,17,844.20
2008,08,02,13,18,846.00
2008,08,02,13,19,844.40
2008,08,02,13,20,842.00
2008,08,02,13,21,842.00
2008,08,02,13,22,843.80
2008,08,02,13,23,845.80
2008,08,02,13,24,845.50
2008,08,02,13,25,845.30
2008,08,02,13,26,845.20
2008,08,02,13,27,845.60
2008,08,02,13,28,844.10
2008,08,02,13,29,842.10
2008,08,02,13,30,842.00
2008,08,02,13,31,841.10
2008,08,02,13,32,840.00
2008,08,02,13,33,840.00
2008,08,02,13,34,837.60
2008,08,02,13,35,837.10
2008,08,02,13,36,838.50
2008,08,02,13,37,840.00
2008,08,02,13,38,838.70
2008,08,02,13,39,835.90
2008,08,02,13,40,835.00
2008,08,02,13,41,837.20
2008,08,02,13,42,837.70
2008,08,02,13,43,835.90
2008,08,02,13,44,835.00
2008,08,02,13,45,839.10
2008,08,02,13,46,838.00
2008,08,02,13,47,833.60
2008,08,02,13,48,835.80
2008,08,02,13,49,833.00
2008,08,02,13,50,831.60
2008,08,02,13,51,831.00
2008,08,02,13,52,835.10
2008,08,02,13,53,837.00
2008,08,02,13,54,836.30
2008,08,02,13,55,836.30
2008,08,02,13,56,843.60
2008,08,02,13,57,842.50
2008,08,02,13,58,840.10
2008,08,02,13,59,836.80
2008,08,02,14,00,833.00
2008,08,02,14,01,832.00
2008,08,02,14,02,831.00
2008,08,02,14,03,832.80
2008,08,02,14,04,830.40
2008,08,02,14,05,831.00
2008,08,02,14,06,830.60
2008,08,02,14,07,830.00
2008,08,02,14,08,828.50
2008,08,02,14,09,828.00
2008,08,02,14,10,823.10
2008,08,02,14,11,824.00
2008,08,02,14,12,824.00
2008,08,02,14,13,824.00
2008,08,02,14,14,823.30
2008,08,02,14,15,819.20
2008,08,02,14,16,821.20
2008,08,02,14,17,822.30
2008,08,02,14,18,820.10
2008,08,02,14,19,817.90
2008,08,02,14,20,816.30
2008,08,02,14,21,816.00
2008,08,02,14,22,816.00
2008,08,02,14,23,816.00
2008,08,02,14,24,816.50
2008,08,02,14,25,815.00
2008,08,02,14,26,814.00
2008,08,02,14,27,810.00
2008,08,02,14,28,810.00
2008,08,02,14,29,809.60
2008,08,02,14,30,807.90
2008,08,02,14,31,807.00
2008,08,02,14,32,805.50
2008,08,02,14,33,805.00
2008,08,02,14,34,805.00
2008,08,02,14,35,804.30
2008,08,02,14,36,804.10
2008,08,02,14,37,805.00
2008,08,02,14,38,803.20
2008,08,02,14,39,800.00
2008,08,02,14,40,800.00
2008,08,02,14,41,799.20
2008,08,02,14,42,796.20
2008,08,02,14,43,793.70
2008,08,02,14,44,793.00
2008,08,02,14,45,795.00
2008,08,02,14,46,794.50
2008,08,02,14,47,793.00
2008,08,02,14,48,793.00
2008,08,02,14,49,791.50
2008,08,02,14,50,789.10
2008,08,02,14,51,788.00
2008,08,02,14,52,788.00
2008,08,02,14,53,787.10
2008,08,02,14,54,784.80
2008,08,02,14,55,784.00
2008,08,02,14,56,782.10
2008,08,02,14,57,781.70
2008,08,02,14,58,780.00
2008,08,02,14,59,779.60
2008,08,02,15,00,777.90
2008,08,02,15,01,777.00
2008,08,02,15,02,777.00
2008,08,02,15,03,773.00
2008,08,02,15,04,773.00
2008,08,02,15,05,772.50
2008,08,02,15,06,772.00
2008,08,02,15,07,770.60
2008,08,02,15,08,768.00
2008,08,02,15,09,766.00
2008,08,02,15,10,765.60
2008,08,02,15,11,765.00
2008,08,02,15,12,763.80
2008,08,02,15,13,763.00
2008,08,02,15,14,760.90
2008,08,02,15,15,759.00
2008,08,02,15,16,757.90
2008,08,02,15,17,756.00
2008,08,02,15,18,756.00
2008,08,02,15,19,752.40
2008,08,02,15,20,751.90
2008,08,02,15,21,750.60
2008,08,02,15,22,749.00
2008,08,02,15,23,748.00
2008,08,02,15,24,745.50
2008,08,02,15,25,744.10
2008,08,02,15,26,742.00
2008,08,02,15,27,741.50
2008,08,02,15,28,738.80
2008,08,02,15,29,737.00
2008,08,02,15,30,735.50
2008,08,02,15,31,733.10
2008,08,02,15,32,732.80
2008,08,02,15,33,730.50
2008,08,02,15,34,729.00
2008,08,02,15,35,728.40
2008,08,02,15,36,726.50
2008,08,02,15,37,724.30
2008,08,02,15,38,722.00
2008,08,02,15,39,721.70
2008,08,02,15,40,720.10
2008,08,02,15,41,717.70
2008,08,02,15,42,714.90
2008,08,02,15,43,714.00
2008,08,02,15,44,713.60
2008,08,02,15,45,711.40
2008,08,02,15,46,709.10
2008,08,02,15,47,707.40
2008,08,02,15,48,707.00
2008,08,02,15,49,705.10
2008,08,02,15,50,701.00
2008,08,02,15,51,700.60
2008,08,02,15,52,700.00
2008,08,02,15,53,698.60
2008,08,02,15,54,694.40
2008,08,02,15,55,693.90
2008,08,02,15,56,692.60
2008,08,02,15,57,690.20
2008,08,02,15,58,687.90
2008,08,02,15,59,686.40
2008,08,02,16,00,684.50
2008,08,02,16,01,681.80
2008,08,02,16,02,679.80
2008,08,02,16,03,678.20
2008,08,02,16,04,677.00
2008,08,02,16,05,675.70
2008,08,02,16,06,671.40
2008,08,02,16,07,669.80
2008,08,02,16,08,668.00
2008,08,02,16,09,667.20
2008,08,02,16,10,664.80
2008,08,02,16,11,663.20
2008,08,02,16,12,661.10
2008,08,02,16,13,660.50
2008,08,02,16,14,656.80
2008,08,02,16,15,656.00
2008,08,02,16,16,652.50
2008,08,02,16,17,649.20
2008,08,02,16,18,649.80
2008,08,02,16,19,646.80
2008,08,02,16,20,644.40
2008,08,02,16,21,642.60
2008,08,02,16,22,639.30
2008,08,02,16,23,636.30
2008,08,02,16,24,636.00
2008,08,02,16,25,634.30
2008,08,02,16,26,630.40
2008,08,02,16,27,629.00
2008,08,02,16,28,625.80
2008,08,02,16,29,624.00
2008,08,02,16,30,622.00
2008,08,02,16,31,620.60
2008,08,02,16,32,618.30
2008,08,02,16,33,614.90
2008,08,02,16,34,612.30
2008,08,02,16,35,610.20
2008,08,02,16,36,609.80
2008,08,02,16,37,605.80
2008,08,02,16,38,604.30
2008,08,02,16,39,601.90
2008,08,02,16,40,599.60
2008,08,02,16,41,596.40
2008,08,02,16,42,594.10
2008,08,02,16,43,591.80
2008,08,02,16,44,590.20
2008,08,02,16,45,587.90
2008,08,02,16,46,584.90
2008,08,02,16,47,584.00
2008,08,02,16,48,581.50
2008,08,02,16,49,577.30
2008,08,02,16,50,574.20
2008,08,02,16,51,573.00
2008,08,02,16,52,573.00
2008,08,02,16,53,569.00
2008,08,02,16,54,567.70
2008,08,02,16,55,565.40
2008,08,02,16,56,562.80
2008,08,02,16,57,559.80
2008,08,02,16,58,557.50
2008,08,02,16,59,554.60
2008,08,02,17,00,549.80
2008,08,02,17,01,548.00
2008,08,02,17,02,547.50
2008,08,02,17,03,544.60
2008,08,02,17,04,543.00
2008,08,02,17,05,541.10
2008,08,02,17,06,537.40
2008,08,02,17,07,533.70
2008,08,02,17,08,532.10
2008,08,02,17,09,528.60
2008,08,02,17,10,526.20
2008,08,02,17,11,523.80
2008,08,02,17,12,520.00